Regional Weather Roundup
Issued by NWS Boston, MA

Home | Current Version | Previous Version | Text Only | Print | Product List | Glossary On
Versions: 1 2 3 4 5 6 7 8 9 10 11 12 13 14 15 16 17 18 19 20 21 22 23 24 25 26 27 28 29 30 31 32 33 34 35 36 37 38 39 40 41 42 43 44 45 46 47
000
ASUS41 KBOX 020210
RWRBOX

REGIONAL WEATHER ROUNDUP
NATIONAL WEATHER SERVICE TAUNTON MA
1000 PM EDT WED OCT 01 2014

NOTE:  "FAIR" INDICATES FEW OR NO CLOUDS BELOW 12,000 FEET WITH NO
SIGNIFICANT WEATHER AND/OR OBSTRUCTIONS TO VISIBILITY.  THE FOLLOWING
OBSERVATION LOCATIONS DO NOT REPORT PRESENT WEATHER...PROVINCETOWN...
SMITHFIELD...BLOCK ISLAND...KEENE...AND OXFORD.

MAZALL-020300-
EASTERN MASSACHUSETTS

CITY           SKY/WX    TMP DP  RH WIND       PRES   REMARKS
BOSTON         LGT RAIN  57  56  96 NE17G28   30.11R FOG
BEVERLY        LGT RAIN  57  54  89 NE13G22   30.11R
LAWRENCE       CLOUDY    57  55  93 NE12      30.14R
BEDFORD        LGT RAIN  56  55  97 NE9G21    30.11R
BLUE HILL        N/A     55  55 100 NE16G28   30.09R
NORWOOD        LGT RAIN  58  56  93 NE8G25    30.10R
MARSHFIELD     NOT AVBL
PLYMOUTH       LGT RAIN  59  58  96 NE12G23   30.06S
TAUNTON        LGT RAIN  59  57  93 N9        30.07R
NEW BEDFORD    CLOUDY    60  58  92 N7        30.04R
$$

MAZALL-020300-
CAPE COD AND THE ISLANDS

CITY           SKY/WX    TMP DP  RH WIND       PRES   REMARKS
FALMOUTH         N/A     59  59 100 NE20G32   30.02S
HYANNIS        LGT RAIN  61  59  93 NE18G31   30.00R
CHATHAM        RAIN      60  59  96 NE16G26   30.03F FOG
PROVINCETOWN   CLOUDY    61  57  88 NE16G23   30.07S
NANTUCKET      LGT RAIN  61  59  93 NE20G29   29.98F
MARTHAS VNYRD  CLOUDY    61  59  93 NE22G36   29.99S
$$

MAZALL-020300-
CENTRAL AND WESTERN MASSACHUSETTS

CITY           SKY/WX    TMP DP  RH WIND       PRES   REMARKS
WORCESTER      LGT RAIN  54  53  97 NE9       30.12R FOG
FITCHBURG      LGT RAIN  57  54  89 NE10      30.14S FOG
ORANGE         CLOUDY    57  55  93 N6        30.13S
SPRINGFIELD    LGT RAIN  58  55  90 N7        30.11S
WESTFIELD      CLOUDY    59  55  87 N8        30.12R
NORTH ADAMS    LGT RAIN  57  57 100 E3        30.13S
PITTSFIELD     LGT RAIN  56  55  97 NE5       30.12S
$$

RIZALL-020300-
RHODE ISLAND

CITY           SKY/WX    TMP DP  RH WIND       PRES   REMARKS
PROVIDENCE     LGT RAIN  58  57  97 N13       30.08R FOG
NEWPORT        CLOUDY    60  58  92 N12       30.05S
BLOCK ISLAND   CLOUDY    59  55  88 N13G18    30.05R
SMITHFIELD     CLOUDY    55  50  82 NE9       30.09R
WESTERLY       LGT RAIN  58  56  93 N9        30.07R FOG
$$

CTZALL-020300-
CONNECTICUT

CITY           SKY/WX    TMP DP  RH WIND       PRES   REMARKS
BRADLEY INTL   CLOUDY    60  55  83 N8        30.10S
HARTFORD       CLOUDY    59  55  87 N10       30.10R
BRIDGEPORT     CLOUDY    60  57  89 NE12      30.08R
DANBURY        CLOUDY    58  56  93 NE5       30.10S
GROTON         CLOUDY    57  56  96 N14       30.06R
NEW HAVEN      CLOUDY    62  56  80 N12       30.08R
CHESTER        NOT AVBL
MERIDEN        CLOUDY    59  55  87 N7        30.09R
WILLIMANTIC    LGT RAIN  58  55  90 N7        30.09R
OXFORD         CLOUDY    57  52  82 NE8G17    30.10S
$$

MEZ002-015-021-024-NHZ003-005-008-011-012-014-VTZ005-008-020300-
NORTHERN NEW ENGLAND

CITY           SKY/WX    TMP DP  RH WIND       PRES   REMARKS
PORTLAND ME    CLOUDY    57  51  80 NE13      30.17R
BANGOR ME      CLOUDY    55  49  80 NE10      30.20F
CONCORD NH     LGT RAIN  56  55  97 N5        30.15R FOG
MANCHESTER NH  CLOUDY    57  53  86 N9        30.12S
NASHUA NH      LGT RAIN  57  56  97 NE5       30.14S
PORTSMOUTH NH  DRIZZLE   57  55  93 NE9       30.13S
JAFFREY NH     CLOUDY    55  54  96 VRB3      30.15S FOG
KEENE NH       CLOUDY    57  48  72 CALM      30.14S
BURLINGTON VT  MOCLDY    57  53  86 CALM      30.16S
MT. WASHINGTON CLOUDY    45  41  87 NE3         N/A
$$

NYZ052-076-020300-
EASTERN NEW YORK

CITY           SKY/WX    TMP DP  RH WIND       PRES   REMARKS
ALBANY         LGT RAIN  61  58  90 N3        30.13R
NEW YORK CITY  CLOUDY    65  56  72 NE13      30.07R
$$

ANZALL-020300-
MARINE OBSERVATIONS

STATION/POSITION TIME  TEMP    WIND        PRES    VSBY  WAVE
                       AIR SEA DIR/SP/G                  HT/PER
                 (UTC) (F)     (DEG/KT/KT) (MB)    (MI)  (FT/S)
BOSTON BUOY      0150   59 60   50/ 21/ 25 1018.6R         8/ 7
BUZZARDS BAY     0100           30/ 23/ 26 1017.1R
NANTUCKET SOUND  0150   61 63   40/ 21/ 25 1015.0F         4/ 4
MASS BAY-STELLWA 0104   59 60   40/ 21/ 27   N/A    1 7/8  7/ 8
ISLE OF SHOALS   0100   58      50/ 24/ 26 1019.0F
S OF BLOCK IS    NOT AVBL
$$

......................KEY.........................
  SKY/WX - SKY CONDITION/PRESENT WEATHER
  TMP    - TEMPERATURE IN FAHRENHEIT
  DWPT   - DEWPOINT IN FAHRENHEIT
  RH     - RELATIVE HUMIDITY IN PERCENT
  WIND   - DIRECTION AND SPEED IN MPH
  PRES   - MEAN SEA LEVEL PRESSURE IN INCHES OF HG
  WCI    - WIND CHILL INDEX
  VSB    - VISIBILITY IN MILES
  HX     - HEAT INDEX
  TC     - TEMPERATURE IN CELSIUS
  VRB    - VARIABLE WIND DIRECTION
  N/A    - NOT AVAILABLE



USA.gov is the U.S. government's official web portal to all federal, state and local government web resources and services.